CZ-6A DEB, 54417

Orbit data source: Space-Track

CZ-6A DEB, 54417 is space debris in SSO originally from a launch on Fri, 11 Nov 2022 UTC launched from the Taiyaun Space Center, China (TSC). Debris objects in space refer to the collection of defunct objects orbiting the Earth. Examples of debris include non-operational satellites, rocket bodies, and fragments generated from explosions, collisions, or faulty payload assembly.

Loading next visibility...
Identifier
54417, 2022-151ER
Orbit
SSO
Country
Flag of CNCN / PRC
Related business
Manufacturer
SAST
Mission
Spacecraft
Bus & Motor
Unknown
Mass
Unknown
Launch date (UTC)
2022-11-11 (4 years ago)
Launch vehicle
Unknown
Launch site
Taiyaun Space Center, China (TSC)
Object type
Payload
Rocket body
Debris
Shape & HBR
Unknown shape, 0.1 m
Radar Cross Section
Medium (>0.1 m² and <1 m²)

Expand to show TLE details & history
Last TLE update: 12 hours ago

TLE from 12 hours ago
0 CZ-6A DEB
1 54417U 22151ER  26235.84227503  .00002195  00000-0  16563-2 0  9991
2 54417  98.9771 196.3662 0158031 300.5008  58.0628 13.89504128190988
Epoch: 2026-08-23T20:12Z
TLE epoch observation values (Epoch: 2026-08-23T20:12:52.562Z)
Latitude
-0.00009°
Longitude
-78.98532°
Altitude
873.457 km
Speed
7.446 km/s
True Right ascension
13h 05m 27s
True Declination
0° 00' 00"
Sunlit
Object was in daylight at epoch
Visualization orbit readout
Latitude
Unknown
Longitude
Unknown
Altitude
Unknown
Speed
Unknown
Apparent Right ascension
Unknown
Apparent Declination
Unknown
Sunlit
N/A
Visualization observer readout
Local Sidereal Time
23:04:46
Azimuth
Unknown
Elevation
Unknown
Doppler factor
Unknown
Orbital elements
Apogee altitude
1,043.033 km
Perigee altitude
812.127 km
Semi-major axis
7,305.717 km
Eccentricity
0.0158
Inclination
98.9771°
RAAN
196.3662°
Arg. of periapsis
300.5008°
True anomaly
59.61561°
Mean anomaly
58.0628°
Eccentric anomaly
58.8376°
Mean motion
3.47575 °/min
Orbital period
103.57 mins
BSTAR
0.0016563
Loading maneuver chart data...
Computing Atmospheric mass density...
Loading historical data...
Loading historical data...
Loading historical data...
Loading historical data...
Loading historical data...
Loading historical data...
Loading historical data...

Documentation

Showing up to 5 results
|